Location: Unspecified
(0.0000°N, 0.0000°E)
Time: 18:16:24
(UTC+00:00)

Vanguard 3 - Pass Details

Date: 11 February 2023
Orbit: 509 x 3249 km, 33.3° (Epoch: 20 March)

Event Time Altitude Azimuth Distance (km) Brightness Sun altitude
Rises 20:15:09 0° 335° (NNW) 4,775 11.2 -29.3°
Reaches altitude 10° 20:19:42 10° 354° (N) 4,292 10.7 -30.3°
Enters shadow 20:23:44 16° 15° (NNE) 4,214 10.5 -31.3°
Maximum altitude 20:27:13 18° 32° (NNE) 4,402 - -32.2°
Drops below altitude 10° 20:36:52 10° 68° (ENE) 5,710 - -34.5°
Sets 20:44:34 0° 84° (E) 7,072 - -36.3°
